OpenBCM V2.0.2 (Linux)

Packet Radio Mailbox

IZ3LSV

[San Dona' di P. JN]

 Login: GUEST





  
LU1HVK > KEP      10.01.20 17:49l 242 Lines 12024 Bytes #999 (0) @ WW
BID : 38669_LU1HVK
Read: GUEST
Subj: TLE 28 10
Path: IZ3LSV<IW0QNL<JH4XSY<N3HYM<XE1FH<LU3DVN<LU1HVK
Sent: 200110/1546Z 38669@LU1HVK.2594.CBA.ARG.SA LinBPQ6.0.19

                         _    _   _ _ _   ___     ___  __
                        | |  | | | / | | | \ \   / / |/ /
                        | |  | | | | | |_| |\ \ / /| ' /
                        | |__| |_| | |  _  | \ V / | . \
                        |_____\___/|_|_| |_|  \_/  |_|\_\

     BBS/NODO - CORDOBA (LEONES-FF87UH) - LU1HVK-4 NODO - LU1HVK-3 APRS

+----------------------------------------------------------------------------+
OSCAR 7
1  7530U 74089B   19300.90106219 -.00000040  00000-0  28310-4 0  9997
2  7530 101.7632 267.2972 0012476  93.2438 334.0502 12.53640567 56963
OSCAR 11 (UoSAT 2)
1 14781U 84021B   19300.11532793  .00000114  00000-0  20048-4 0  9994
2 14781  97.6039 318.6143 0007103 247.5492 112.4971 14.83115111918095
OSCAR 19 (LUSAT)
1 20442U 90005G   19300.80409020 -.00000011  00000-0  12333-4 0  9991
2 20442  98.6610 242.6511 0012682 120.1374 240.1068 14.32935959555154
EYESAT A
1 22825U 93061C   19299.91740610 +.00000000 +00000-0 +18183-4 0  9991
2 22825 098.9142 291.5924 0008153 347.0854 013.0117 14.30069480360292
ITAMSAT
1 22826U 93061D   19299.95866286  .00000008  00000-0  21083-4 0  9995
2 22826  98.9081 291.6098 0008467 334.7097  25.3669 14.30403704360770
RADIO ROSTO
1 23439U 94085A   19299.89101691 -.00000057 +00000-0 -41164-3 0  9995
2 23439 064.8153 265.5720 0145258 087.7909 273.9639 11.27568535022570
JAS 2
1 24278U 96046B   19300.35652023 -.00000050  00000-0 -12061-4 0  9998
2 24278  98.5577  76.1610 0349335 261.2507  94.8927 13.53094309145474
TECHSAT 1B
1 25397U 98043D   19299.84979727 -.00000020  00000-0  10651-4 0  9993
2 25397  98.6997 238.4731 0001990  50.2553 309.8801 14.23672896106399
ISS (ZARYA)
1 25544U 98067A   19300.82923833  .00001050  00000-0  26230-4 0  9994
2 25544  51.6444  63.5741 0006582 194.1290 314.8586 15.50224357195834
PCSAT
1 26931U 01043C   19300.44962776 -.00000016  00000-0  25521-4 0  9994
2 26931  67.0532  26.2585 0007489 267.1696  92.8548 14.30556372943670
SAUDISAT 1C
1 27607U 02058C   19300.48639452  .00000064  00000-0  29715-4 0  9999
2 27607  64.5566   9.7051 0074136 231.0466 128.4015 14.75583051906332
CUTE-1
1 27844U 03031E   19300.01857397  .00000056  00000-0  44841-4 0  9991
2 27844  98.6852 306.2889 0010189  20.1087 340.0490 14.22201483846812
CUBESAT XI 4
1 27848U 03031J   19299.55530514 +.00000051 +00000-0 +43215-4 0  9999
2 27848 098.6926 306.3588 0010300 032.7818 327.3997 14.21793612846562
MOZHAYETS 4
1 27939U 03042A   19300.75109321  .00000072  00000-0  21540-4 0  9995
2 27939  98.0595  74.1577 0013315  18.3627 341.8064 14.66811985859758
CUBESAT XI 5
1 28895U 05043F   19300.35260886  .00000147  00000-0  37095-4 0  9995
2 28895  97.9784  78.7526 0015621 301.4922  58.4754 14.63703647746594
CUTE-1.7+APD II
1 32785U 08021C   19300.44941493  .00000279  00000-0  35743-4 0  9991
2 32785  97.5571 294.0460 0012881 182.7087 177.4063 14.88363577623134
DELFI C3
1 32789U 08021G   19300.81647339  .00002047  00000-0  13976-3 0  9996
2 32789  97.4503 346.4410 0013006  42.8721 317.3518 15.07205333626714
SEEDS
1 32791U 08021J   19300.78400584  .00000272  00000-0  32905-4 0  9996
2 32791  97.5320 300.4529 0013915 155.2781 204.9107 14.90895528623646
YUBELEINY
1 32953U 08025A   19300.67228862  .00000020  00000-0  75656-4 0  9996
2 32953  82.5028  63.2970 0019271 201.5427 158.4843 12.43092039518580
PRISM (HITOMI)
1 33493U 09002B   19300.76375763  .00000785  00000-0  73977-4 0  9997
2 33493  98.1241 226.6960 0016508 106.4575 253.8461 14.96781663584757
KKS-1 (KISEKI)
1 33499U 09002H   19300.15327979  .00000110  00000-0  24243-4 0  9996
2 33499  98.3393 142.9702 0009778 144.8830 215.3025 14.75472785578467
SWISSCUBE
1 35932U 09051B   19300.75901418  .00000132  00000-0  40800-4 0  9997
2 35932  98.5993 110.6738 0008581 120.0900 240.1148 14.56322307535856
BEESAT
1 35933U 09051C   19300.75416155  .00000116  00000-0  37147-4 0  9999
2 35933  98.6010 112.4807 0006616 130.2069 229.9708 14.56406716535967
ITUPSAT 1
1 35935U 09051E   19300.06270798  .00000102  00000-0  34537-4 0  9991
2 35935  98.6119 111.9951 0008934 131.9042 228.2917 14.55561386535606
XIWANG-1 (HOPE-1)
1 36122U 09072B   19300.76772955 -.00000043  00000-0 -32962-5 0  9999
2 36122 100.0796 297.0138 0008070  48.6537 311.5263 13.16351645474121
TISAT 1
1 36799U 10035E   19300.40040258  .00000495  00000-0  55949-4 0  9993
2 36799  98.1721  97.0315 0012664  23.1074 337.0710 14.91186417504243
JUGNU
1 37839U 11058B   19300.28566681  .00000321  00000-0  29442-4 0  9991
2 37839  19.9613 262.8362 0018723 327.2995 176.5630 14.12662630415748
SRMSAT
1 37841U 11058D   19300.14942375  .00000303  00000-0  21184-4 0  9992
2 37841  19.9731 323.1355 0011803 188.8056 217.1982 14.10641631415137
M-CUBED/EXP-1 PRIME
1 37855U 11061F   19300.45501341  .00003267  00000-0  16902-3 0  9992
2 37855 101.7180 263.1979 0172861  49.0527 312.5501 15.05689223436457
HORYU 2
1 38340U 12025D   19300.77485653  .00000216  00000-0  39538-4 0  9997
2 38340  98.3155 343.2072 0012649  69.6129 290.6437 14.75765180400499
STRAND 1
1 39090U 13009E   19300.09643695  .00000055  00000-0  34311-4 0  9995
2 39090  98.4749 143.7958 0008040 261.1527  98.8748 14.35102097349098
SOMP
1 39134U 13015E   19299.67469452  .00001766  00000-0  88668-4 0  9993
2 39134  64.8625 319.2401 0037193 282.5858  77.1111 15.20427854360357
BEESAT 3
1 39135U 13015F   19300.15856570  .00001321  00000-0  74131-4 0  9998
2 39135  64.8681 337.8241 0038068 288.6357  71.0637 15.17680346360046
BEESAT 2
1 39136U 13015G   19300.50902947  .00001263  00000-0  72853-4 0  9992
2 39136  64.8690 340.8954 0029445 293.4992  66.3040 15.17097152360019
CUBEBUG 1
1 39153U 13018D   19300.80446517  .00000271  00000-0  42125-4 0  9990
2 39153  97.9816  38.2146 0018040 131.0615 229.2159 14.80613808351218
ZACUBE
1 39417U 13066B   19300.02271545  .00000272  00000-0  40545-4 0  9992
2 39417  97.5624 306.1993 0058112 327.9423  31.8261 14.81167206320335
TRITON 1
1 39427U 13066M   19300.88229975  .00000227  00000-0  43755-4 0  9993
2 39427  97.6933 270.2678 0115117 105.2527 256.1440 14.67895542317581
GOMX 1
1 39430U 13066Q   19300.79388227  .00000118  00000-0  30522-4 0  9990
2 39430  97.7612 248.8084 0150485 200.5067 159.0056 14.59300008315724
HUMSAT D
1 39433U 13066T   19300.10351626  .00000341  00000-0  38533-4 0  9999
2 39433  97.5394 342.1847 0029758 223.2792 136.6090 14.92281582322529
CUBEBUG 2
1 39440U 13066AA  19299.99070057  .00000310  00000-0  49838-4 0  9993
2 39440  97.6110 290.7902 0080813  22.6726 337.8021 14.75904547319193
FUNCUBE 1
1 39444U 13066AE  19300.01844038  .00000345  00000-0  48750-4 0  9991
2 39444  97.5593 308.2622 0057080 321.1620  38.5498 14.81996878319238
UWE-3
1 39446U 13066AG  19299.90695692 +.00000280 +00000-0 +43782-4 0  9996
2 39446 097.5860 297.8577 0069922 356.3989 003.6710 14.78439627317918
SPROUT
1 39770U 14029E   19300.74611088  .00000755  00000-0  89400-4 0  9992
2 39770  97.8896  43.2353 0009417  22.3450 337.8193 14.87474576294318
UNISAT 6
1 40012U 14033C   19300.48816067  .00000246  00000-0  43788-4 0  9997
2 40012  97.7375 161.3392 0059256  36.8693 323.6567 14.74023388287957
DUCHIFAT 1
1 40021U 14033M   19300.84123596  .00000456  00000-0  52287-4 0  9992
2 40021  97.9262 225.8770 0012608 344.3357  15.7469 14.90717025291089
QB50P1
1 40025U 14033R   19300.34043064  .00000409  00000-0  49396-4 0  9997
2 40025  97.9049 219.8001 0012385 356.3630   3.7495 14.89006357290762
CHUBUSAT 1
1 40300U 14070C   19300.81756786  .00000711  00000-0  33815-4 0  9993
2 40300  97.3159  11.6135 0019664 318.6177 174.6568 15.22219837275965
NUDT-PHONESAT
1 40900U 15049B   19300.78677674  .00002334  00000-0  10151-3 0  9990
2 40900  97.4377 308.8638 0014354  85.0560   0.9242 15.23186419227614
ZDPS 2A
1 40901U 15049C   19300.73867626  .00001029  00000-0  53996-4 0  9999
2 40901  97.4626 304.6926 0014918 104.9210 341.9445 15.17893299227117
ZDPS 2B
1 40902U 15049D   19300.78481657  .00001181  00000-0  61669-4 0  9996
2 40902  97.4580 302.1294 0014959 102.1459  23.2781 15.17765272227097
XW-2A
1 40903U 15049E   19300.79190196  .00002615  00000-0  62705-4 0  9998
2 40903  97.3237 344.2161 0014286  37.2332  28.7709 15.42239029230455
KAITUO 1A
1 40904U 15049F   19300.73698653  .00000626  00000-0  36509-4 0  9997
2 40904  97.4718 300.5382 0016045 111.1640 334.3385 15.15474966226845
OBJECT G
1 40905U 15049G   19300.71293604  .00000442  00000-0  27580-4 0  9998
2 40905  97.4769 297.9310 0017105 107.4693 339.3905 15.14372716226703
XW-2C
1 40906U 15049H   19300.90485270  .00000539  00000-0  31647-4 0  9998
2 40906  97.4724 300.8487 0016335 102.0932 322.8052 15.15795256226872
XW-2D
1 40907U 15049J   19300.73760833  .00000862  00000-0  48226-4 0  9991
2 40907  97.4703 300.3649 0015800 100.6644 344.7628 15.15995340226862
LILACSAT 2
1 40908U 15049K   19300.73395844  .00000631  00000-0  38362-4 0  9992
2 40908  97.4843 299.0376 0017298 107.3766 338.0416 15.13876566226633
XW-2F
1 40910U 15049M   19300.77811433  .00000931  00000-0  49722-4 0  9991
2 40910  97.4660 302.6069 0016399  93.0712  28.3548 15.17488595226894
XW-2B
1 40911U 15049N   19300.78368376  .00000581  00000-0  33704-4 0  9990
2 40911  97.4723 301.0821 0015673 100.7861  24.4942 15.15922280226762
KAITUO 1B
1 40912U 15049P   19300.73452821  .00001327  00000-0  64974-4 0  9997
2 40912  97.4509 306.4113 0016453  76.4377  11.0492 15.19826434227217
TIANWANG 1C (TW-1C)
1 40926U 15051B   19300.90618346  .00021148  00000-0  27940-3 0  9994
2 40926  97.1228 347.0093 0005790 239.0882 246.5340 15.58360673230576
TIANWANG 1B (TW-1B)
1 40927U 15051C   19300.74809185  .00018004  00000-0  25438-3 0  9997
2 40927  97.1239 345.9497 0006125 251.7236 240.9754 15.56583586230385
